カタログに戻る

THORAD DELTA 1 DEB

運用中LEO
NORAD 8299·DEBRIS·🇺🇸 United States

打ち上げ Nov 15, 1974 から Vandenberg Space Force Base

Loading…

次のパス (今後24時間)

TLE

最新Source: Space-Track

元期: Sep 13, 2026, 23:50 UTC

1 08299U 74089BG  26256.99353501  .00009296  00000-0  54602-2 0  9997
2 08299 102.0519  96.2165 0303754 233.4700 123.8125 13.87810908485787

AllMySatでTHORAD DELTA 1 DEBをリアルタイム追跡

Download on the App Store